Torna al catalogo

STARLINK-11590

AttivoComunicazioniVLEO
NORAD 63112·PAYLOAD·🇺🇸 United States

Lanciato Feb 27, 2025 da Cape Canaveral Space Force Station

Loading…

Prossimi Passaggi (prossime 24 ore)

TLE

AggiornatoSource: CelesTrak SupGP

Epoca: Sep 15, 2026, 03:14 UTC

1 63112C 25039J   26258.13520833  .00001898  00000+0  14746-4 0  2589
2 63112  43.0005 175.3657 0001437 263.2406 162.5354 15.70833310    17

Traccia STARLINK-11590 in tempo reale con AllMySat

Download on the App Store